Flag for U.S.A. Weather past 2 weeks in Fort Lauderdale, Florida, U.S.A.

Now
90 °F

Passing clouds.


Feels Like: 97 °F
Forecast: 82 / 89 °F
Wind: 14 mph from Southeast

Location: Fort Lauderdale / Hollywood International Airport

Current Time: Jul 5, 2015 at 1:31:41 PM

Latest Report: Jul 5, 2015 at 12:53 PM


Visibility: 10 mi

Pressure: 30.16 "Hg

Humidity: 56%

Dew point: 72 °F

Location of Fort LauderdaleLocation

Historic Weather in Fort Lauderdale — Graph

°F

Fort Lauderdale temperature yesterday

Maximum temperature yesterday: 90 °F (at 2:53 PM)
Minimum temperature yesterday: 79 °F (at 2:53 AM)
Average temperature yesterday: 85 °F

Past Weeks' High & Low Weather Summary

 TemperatureHumidityPressure
High93 °F (Jun 29, 1:53 PM)94% (Jun 28, 2:53 PM)30.17 "Hg (Jun 28, 2:53 PM)
Low75 °F (Jun 29, 6:01 PM)49% (Jul 2, 2:53 PM)30.02 "Hg (Jun 27, 4:53 AM)
Average85 °F73%30.09 "Hg
* Reported Jun 20 11:53 AM — Jul 5 11:53 AM, Fort Lauderdale, Weather by CustomWeather, © 2015

Note: Actual official high and low records may vary slightly from our data, if they occured in-between our weather recording intervals... More about our weather records

Advertising

Fort Lauderdale weather history for previous 24 hours

 ConditionsComfort  
Time TempWeatherWind HumidityBarometerVisibility
11:53 AM
Sun, Jul 5
89 °FPassing clouds.7 mph59%30.17 "Hg10 mi
10:53 AM88 °FScattered clouds.14 mph61%30.16 "Hg10 mi
9:53 AM86 °FScattered clouds.15 mph67%30.15 "Hg10 mi
8:53 AM86 °FPassing clouds.14 mph67%30.14 "Hg10 mi
7:53 AM84 °FPassing clouds.9 mph72%30.13 "Hg10 mi
6:53 AM83 °FPassing clouds.12 mph74%30.11 "Hg10 mi
5:53 AM83 °FPassing clouds.9 mph72%30.11 "Hg10 mi
4:53 AM84 °FPassing clouds.12 mph74%30.10 "Hg10 mi
3:53 AM84 °FPassing clouds.9 mph77%30.09 "Hg10 mi
2:53 AM84 °FPassing clouds.10 mph74%30.09 "Hg10 mi
1:53 AM84 °FPartly cloudy.8 mph77%30.11 "Hg10 mi
12:53 AM84 °FPassing clouds.12 mph74%30.12 "Hg10 mi
11:53 PM
Sat, Jul 4
84 °FPartly cloudy.9 mph80%30.13 "Hg10 mi
10:53 PM84 °FPartly cloudy.10 mph80%30.12 "Hg10 mi
9:53 PM84 °FPassing clouds.10 mph74%30.10 "Hg10 mi
8:53 PM85 °FScattered clouds.9 mph72%30.09 "Hg10 mi
7:53 PM85 °FPartly sunny.10 mph70%30.09 "Hg10 mi
6:53 PM86 °FPartly sunny.10 mph67%30.07 "Hg10 mi
5:53 PM88 °FPartly sunny.13 mph63%30.08 "Hg10 mi
4:53 PM89 °FPartly sunny.14 mph63%30.07 "Hg10 mi
3:53 PM89 °FBroken clouds.15 mph65%30.09 "Hg10 mi
2:53 PM90 °FBroken clouds.13 mph63%30.10 "Hg10 mi
1:53 PM89 °FSunny.13 mph65%30.10 "Hg10 mi
Weather by CustomWeather, © 2015

See weather overviewHow to use our weather pages